TimeMDT,TemperatureF,Dew PointF,Humidity,Sea Level PressureIn,VisibilityMPH,Wind Direction,Wind SpeedMPH,Gust SpeedMPH,PrecipitationIn,Events,Conditions,WindDirDegrees,DateUTC
12:53 AM,62.1,46.0,56,29.77,10.0,East,9.2,-,N/A,,Clear,80,2013-07-04 06:53:00
1:53 AM,61.0,44.1,54,29.75,10.0,East,4.6,-,N/A,,Clear,80,2013-07-04 07:53:00
2:53 AM,60.1,45.0,57,29.75,10.0,NW,3.5,-,N/A,,Clear,310,2013-07-04 08:53:00
3:53 AM,55.9,46.9,72,29.76,10.0,WNW,4.6,-,N/A,,Clear,300,2013-07-04 09:53:00
4:53 AM,55.0,46.0,72,29.77,10.0,Calm,Calm,-,N/A,,Clear,0,2013-07-04 10:53:00
5:53 AM,55.0,48.0,77,29.78,10.0,WNW,4.6,-,N/A,,Clear,300,2013-07-04 11:53:00
6:53 AM,59.0,46.9,64,29.79,10.0,West,3.5,-,N/A,,Clear,280,2013-07-04 12:53:00
7:53 AM,66.9,48.0,51,29.79,10.0,WNW,4.6,-,N/A,,Clear,290,2013-07-04 13:53:00
8:53 AM,75.9,48.0,37,29.79,10.0,WNW,8.1,-,N/A,,Clear,300,2013-07-04 14:53:00
9:53 AM,82.9,48.0,29,29.77,10.0,WNW,6.9,-,N/A,,Clear,290,2013-07-04 15:53:00
10:53 AM,88.0,48.9,26,29.76,10.0,Calm,Calm,-,N/A,,Clear,0,2013-07-04 16:53:00
11:53 AM,89.1,46.0,22,29.75,10.0,NE,5.8,-,N/A,,Partly Cloudy,50,2013-07-04 17:53:00
12:53 PM,91.0,48.0,23,29.75,10.0,NE,15.0,25.3,N/A,,Clear,40,2013-07-04 18:53:00
1:53 PM,89.1,48.9,25,29.76,10.0,East,19.6,28.8,N/A,,Mostly Cloudy,80,2013-07-04 19:53:00
2:53 PM,88.0,50.0,27,29.77,10.0,East,21.9,27.6,N/A,,Clear,80,2013-07-04 20:53:00
3:53 PM,89.1,48.9,25,29.76,10.0,ENE,17.3,24.2,N/A,,Clear,70,2013-07-04 21:53:00
4:53 PM,89.1,46.0,22,29.75,10.0,ESE,15.0,21.9,N/A,,Clear,120,2013-07-04 22:53:00
5:53 PM,84.9,44.1,24,29.76,10.0,SE,9.2,-,N/A,,Clear,130,2013-07-04 23:53:00
6:53 PM,82.9,44.1,25,29.76,10.0,SE,8.1,-,N/A,,Clear,130,2013-07-05 00:53:00
7:53 PM,80.1,46.9,31,29.78,10.0,NE,12.7,-,N/A,,Mostly Cloudy,40,2013-07-05 01:53:00
8:53 PM,77.0,50.0,39,29.75,10.0,East,9.2,-,0.00,,Partly Cloudy,80,2013-07-05 02:53:00
9:53 PM,73.9,48.9,41,29.75,10.0,East,5.8,-,N/A,,Clear,90,2013-07-05 03:53:00
10:53 PM,73.0,48.9,42,29.75,10.0,ESE,6.9,-,N/A,,Clear,120,2013-07-05 04:53:00
11:53 PM,69.1,48.9,49,29.76,10.0,East,5.8,-,N/A,,Clear,90,2013-07-05 05:53:00